Regional Weather Roundup
Issued by NWS Mobile, AL

Home | Current Version | Previous Version | Text Only | Print | Product List | Glossary On
Versions: 1 2 3 4 5 6 7 8 9 10 11 12 13 14 15 16 17 18 19 20 21 22 23 24 25 26 27 28 29 30 31 32 33 34 35 36 37 38 39 40 41 42 43 44 45 46 47 48 49 50
658
ASUS44 KMOB 170912
RWRMOB
REGIONAL WEATHER ROUNDUP
NATIONAL WEATHER SERVICE MOBILE AL
300 AM CST WED JAN 17 2018

NOTE: "FAIR" INDICATES FEW OR NO CLOUDS BELOW 12,000 FEET WITH NO
      SIGNIFICANT WEATHER AND/OR OBSTRUCTIONS TO VISIBILITY.

  * THESE STATIONS ARE PART OF THE UNIVERSITY OF SOUTH ALABAMA
    MESONET AND ARE NOT UNDER NWS OR FAA QUALITY CONTROL.

ALZ061>064-171000-
COASTAL ALABAMA

CITY           SKY/WX    TMP DP  RH WIND       PRES   REMARKS
MOBILE REG APT CLOUDY    23  19  85 N15G22    30.51S WCI  10
BROOKLEY FIELD CLOUDY    25  21  85 N16       30.52S WCI  12
USA CAMPUS*    NOT AVBL
DOG RIVER*     NOT AVBL


CITY           SKY/WX    TMP DP  RH WIND       PRES   REMARKS
GULF SHORES    MIX PCPN  26  23  91 NW14G21   30.46R WCI  14

$$

ALZ051>060-171000-
INTERIOR SOUTHWEST AND SOUTH CENTRAL ALABAMA

CITY           SKY/WX    TMP DP  RH WIND       PRES   REMARKS
GREENVILLE     LGT SNOW  23  18  81 N14       30.45R VSB 3/4 WCI  11
EVERGREEN      LGT SNOW  23  18  81 N10       30.49R WCI  12
ATMORE*          N/A    N/A N/A N/A N9          N/A
ANDALUSIA/OPP  MIX PCPN  28  22  78 N14       30.43S WCI  17
ANDALUSIA*       N/A     25  25 100 VRB8      30.41S WCI  16
FLORALA APT    FRZ RAIN  28  24  85 MISG      30.43S FOG
FLORALA*         N/A     27  27 100 SW8       31.21R WCI  18

$$

FLZ001>006-171000-
WESTERN FLORIDA PANHANDLE

CITY           SKY/WX    TMP DP  RH WIND       PRES   REMARKS
PENSACOLA      LGT SNOW  28  25  88 N17G29    30.43S FOG     WCI  16
NAS PENSACOLA  LGT SNOW  28  25  88 N15G25    30.43R WCI  16
MILTON           N/A    N/A N/A N/A MISG      30.43S
WHTNG S FIELD  LGT SNOW  29  25  85 N16       30.44R FOG     WCI  17


CITY           SKY/WX    TMP DP  RH WIND       PRES   REMARKS
JAY*           NOT AVBL
DUKE FIELD     FRZ RAIN  31  29  92 N12       30.39S WCI  22
CRESTVIEW      LGT SNOW  31  28  89 N12G21    30.42S FOG     WCI  22
VALPARAISO     LGT RAIN  32  28  84 N17G23    30.39R WCI  21
DESTIN         CLOUDY    36  27  69 N17       30.39R

$$

MSZ076-079-171000-
INTERIOR SOUTHEAST MISSISSIPPI

CITY           SKY/WX    TMP DP  RH WIND       PRES   REMARKS
LEAKESVILLE*     N/A     21  16  79 NW7       30.54S WCI  13
AGRICOLA*        N/A     21  19  93 N10       30.50S WCI  10

$$

MARINE OBSERVATIONS

STATION/POSITION TIME  TEMP    WIND        PRES    WAVE
                       AIR SEA DIR/SP/G            HT/PER
                 (UTC) (F)     (DEG/KT/KT) (MB)    (FT/S)
PASCAGOULA       0848   25     350/  4/  5 1032.8F
PETIT BOIS ISLND 0848   26     350/  5/  6 1033.6R
GRAND BAY        0745   26     350/  7     1033.0S
KATRINA CUT      0830   28     360/  4     1032.2S
CEDAR POINT      0830   26     360/  7     1031.5R
E DAUPHIN ISLAND 0900   27     330/ 11/ 13 1032.1R
MIDDLE BAY LIGHT 0830   26     340/  4     1031.5R
USCG MOBILE BAY  0848   23 50  350/  6/  9 1033.3R
STATE DOCKS      0848   24 48              1033.1S
MEAHER PARK      0830   24     340/  8     1032.9R
WEEKS BAY        0745   28                 1031.0S
FORT MORGAN      0848   27     360/  6/  7   N/A
12 S ORANGE BCH  NOT AVBL
64 S DAUPHIN ISL 0850   44 72  360/ 21/ 29 1030.8R   7/ 7
67 S FORT MORGAN 0830   43                 1029.5F

$$

SELECTED LOCATIONS ACROSS THE REGION

CITY           SKY/WX    TMP DP  RH WIND       PRES   REMARKS
NEW ORLEANS    MOCLDY    24  17  74 N13G22    30.57S WCI  12
GULFPORT       DRIZZLE   24  19  81 N13       30.53F WCI  12
PASCAGOULA AP  CLOUDY    24  19  81 N18       30.52R WCI  10
PASCAGOULA*      N/A     23  21  93 N13         N/A  WCI  11
HATTIESBURG    FAIR      18  11  74 N10       30.59S WCI   6
LAUREL         FAIR      14   9  80 N8        30.59S WCI   3
MERIDIAN       FAIR      14   1  56 N14       30.60S WCI  -1
JACKSON        FAIR      12   4  70 N13       30.63S WCI  -3
MONTGOMERY     LGT SNOW  21  16  81 N10       30.49S VSB 3/4 WCI  10
TROY           LGT SNOW  24  21  88 NW12      30.43S FOG     WCI  13
ASHFORD*         N/A     25  25 100 VRB8      30.41S WCI  16
DOTHAN         CLOUDY    32  28  85 MISG      30.38F
PANAMA CITY    CLOUDY    37  29  72 NW16      30.35R

$$





USA.gov is the U.S. government's official web portal to all federal, state and local government web resources and services.